1999 VL12 

Epoch 1999 Nov. 18.0 TT = JDT 2451500.5                 Nakano

M 125.89230              (2000.0)            P               Q

n   0.48982570     Peri.   40.76242     +0.05926905     +0.95784830

a   1.5938288      Node   234.51356     -0.98187534     +0.00515677

e   0.2359981      Incl.   20.19504     -0.18002220     +0.28722820

P   2.01           H   17.0           G   0.15           U   *

Residuals in seconds of arc 

991109 704  0.3+  1.1-    991112 651  0.2+  0.1-    991115 704  0.1-  0.9-  

991109 704  0.0   1.0-    991112 651  0.5+  0.0     991116 118  0.2+  0.2-  

991109 704  0.4+  1.4-    991112 474  0.9-  0.4+    991116 118  0.3-  0.2+  

991110 853  0.3-  0.3-    991112 474  0.3-  0.2+    991116 118  0.7+  0.1-  

991110 853  0.2-  0.1+    991112 474  1.3+  0.8+    991117 704  0.7+  0.1-  

991110 853  0.3-  0.5+    991112 474  1.4-  0.4+    991117 704  0.4+  1.4-  

991110 704  0.2+  0.6-    991112 474  0.8-  0.2+    991117 704  0.6-  0.5-  

991110 704  0.7+  0.2-    991112 474  0.6+  1.5+    991117 704  0.3-  0.1-  

991110 704  0.2+  0.4-    991112 474  0.1-  0.3+    991117 704  0.4-  0.4-  

991110 704  0.1+  0.5+    991113 402  0.4+  0.1-    991126 046  0.0   0.1+  

991111 853  0.0   0.6+    991113 402  0.9+  0.1+    991126 046  0.3-  0.1+  

991111 853  0.2-  0.2+    991113 402  0.2-  0.6+    991126 046  0.4-  0.0   

991111 853  0.3-  0.3+    991113 360  0.5-  0.4+    991126 046  0.1+  0.1+  

991112 853  0.0   0.2+    991113 360  0.1-  0.7+    991126 046  0.2+  0.1+  

991112 853  0.3-  0.1+    991113 360  0.4-  0.3+    991203 402  0.2-  0.4+  

991112 853  0.2-  0.3+    991115 704  0.4+  0.9+    991203 402  0.8+  0.7-  

991112 651  0.4+  0.1-    991115 704  0.0   1.0-    991203 402  0.2-  0.0   

 

NAKANO

         **** Don't distribute anyone except personal use only ****

                (C) Copyright 1999 OAA/ComputingSection

write mail from CFAD0::NAKANO on 1999-12-04 20:12:04(JST).

 



1999 VL12 

Epoch 1999 Nov. 18.0 TT = JDT 2451500.5                 Nakano

M 127.70902              (2000.0)            P               Q

n   0.49030077     Peri.   39.38162     +0.03640819     +0.95790180

a   1.5927991      Node   234.57542     -0.98222033     -0.01821562

e   0.2368323      Incl.   20.45507     -0.18416750     +0.28651759

P   2.01           H   17.1           G   0.15           U   *

 

NAKANO

         **** Don't distribute anyone except personal use only ****

                (C) Copyright 1999 OAA/ComputingSection

write mail from CFAD0::NAKANO on 1999-11-15 22:55:15(JST).



 1999 VL12 

Epoch 1999 Nov. 18.0 TT = JDT 2451500.5                 Nakano

M 127.89083              (2000.0)            P               Q

n   0.49083116     Peri.   39.29856     +0.03497358     +0.95815704

a   1.5916514      Node   234.56386     -0.98210023     -0.01969573

e   0.2362097      Incl.   20.40714     -0.18508374     +0.28556463

P   2.01           H   17.1           G   0.15           U   *

 

NAKANO

         **** Don't distribute anyone except personal use only ****

                (C) Copyright 1999 OAA/ComputingSection

write mail from CFAD0::NAKANO on 1999-11-14 23:24:32(JST).





–ß‚è‚Ü‚·B